Location: Fontevrault
(47.1823°N, 0.0493°E)
Time: 04:12:20
(UTC+00:00)

Meteor 1-21 Rocket - Pass Details

Date: 25 October 2021
Orbit: 834 x 907 km, 81.2° (Epoch: 07 December)

Event Time Altitude Azimuth Distance (km) Brightness Sun altitude
Rises 05:00:29 0° 136° (SE) 3,397 8.0 -16.2°
Reaches altitude 10° 05:03:57 10° 114° (ESE) 2,481 7.7 -15.7°
Maximum altitude 05:06:57 15° 81° (E) 2,172 7.5 -15.2°
Drops below altitude 10° 05:09:58 10° 49° (NE) 2,516 7.4 -14.6°
Sets 05:13:31 0° 27° (NNE) 3,476 7.7 -14.0°
